STARLINK-32034, 60297

Orbit data source: Space-Track

STARLINK-32034, 60297 is a payload satellite owned by SpaceX/Seattle (US) in LEO that was launched on Sun, 28 Jul 2024 UTC via an FALCON 9 launch vehicle from the Air Force Eastern Test Range (AFETR). Payload-class satellites include a variety of spacecraft equipped with specific instruments for various scientific and technological missions. These include communications satellites like Starlink; space stations such as the ISS; scientific satellites like the Hubble; Earth observation satellites from companies like Planet Labs, Umbra, and HawkEye 360; GPS; miniature CubeSats for education and research; and military/defense satellites.

Loading next visibility...
Identifier
60297, 2024-132V
Orbit
LEO
Country
Flag of USUS
Related business
Manufacturer
SpaceX/Seattle
Mission
Operational Commercial Communications
Bus & Motor
STARLINK V2M, Unknown motor
Mass
730 kg wet, ~700 kg dry
Launch date (UTC)
2024-07-28 (2 years ago)
Launch vehicle
FALCON 9
Launch site
Air Force Eastern Test Range (AFETR)
Object type
Payload
Rocket body
Debris
Shape & HBR
Box + 2 Pan, 17.7 m
Radar Cross Section
33.884 m², Large (>1 m²)

Expand to show TLE details & history
Last TLE update: 18 hours ago

TLE from 18 hours ago
0 STARLINK-32034
1 60297U 24132V   26065.38757722  .00000536  00000-0  30232-4 0  9994
2 60297  53.1607  67.8504 0001197 110.7827 249.3302 15.30191235 91050
Epoch: 2026-03-06T09:18Z
TLE epoch observation values (Epoch: 2026-03-06T09:18:06.671Z)
Latitude
-0.00004°
Longitude
124.19827°
Altitude
476.431 km
Speed
7.629 km/s
True Right ascension
04h 31m 24s
True Declination
0° 00' 00"
Sunlit
Object was in daylight at epoch
Visualization orbit readout
Latitude
Unknown
Longitude
Unknown
Altitude
Unknown
Speed
Unknown
Apparent Right ascension
Unknown
Apparent Declination
Unknown
Sunlit
N/A
Visualization observer readout
Local Sidereal Time
07:12:31
Azimuth
Unknown
Elevation
Unknown
Doppler factor
Unknown
Orbital elements
Apogee altitude
476.318 km
Perigee altitude
474.677 km
Semi-major axis
6,853.635 km
Eccentricity
0.00012
Inclination
53.1607°
RAAN
67.8504°
Arg. of periapsis
110.7827°
True anomaly
249.31737°
Mean anomaly
249.3302°
Eccentric anomaly
249.32378°
Mean motion
3.82527 °/min
Orbital period
94.11 mins
BSTAR
0.000030232
Loading maneuver chart data...
Computing Atmospheric mass density...
Loading historical data...
Loading historical data...
Loading historical data...
Loading historical data...
Loading historical data...
Loading historical data...
Loading historical data...

Documentation

Showing up to 5 results
|